Location: Lesignano de� Bagni
(44.6500°N, 10.3000°E)
Time: 19:15:41
(UTC+00:00)

Lacrosse 4 Rocket - Pass Details

Date: 03 March 2021
Orbit: 537 x 620 km, 68.0° (Epoch: 18 April)

Event Time Altitude Azimuth Distance (km) Brightness Sun altitude
Rises 19:09:29 0° 200° (SSW) 2,811 5.0 -22.0°
Reaches altitude 10° 19:11:42 10° 197° (SSW) 1,927 4.1 -22.4°
Enters shadow 19:14:21 36° 184° (S) 965 2.4 -22.9°
